Погода в Салтымакове

Россия / Кемеровская область (Кузбасс)     54°49′25″N   87°04′09″E
темп.,
°C
ветер,
м/с
пор.,
м/с
влажн.,
%
обл.,
%
осадки,
мм/ч
давл.,
гПа
погр.,
м
22 апреля, чт
чт2201:00−11ссз119755 0.0 102911
04:00−10ссв1198100 0.0 103118
07:00−8ссв269056 0.0 1033117
10:00−1св57795 0.0 1035864
13:00+1св468072 0.3 10361148
16:00+1ссв478190 0.5 10371046
19:00+1ссв487633 0.6 1039449
22:00−5с24925 0.0 104272
23 апреля, пт
пт2301:00−8с22945 0.0 104343
04:00−8с239519 0.0 104249
07:00−6ссв29925 0.0 1043190
10:00+1ссв59825 0.0 1042964
13:00+3св577261 0.0 10411467
16:00+4ссв576880 0.1 10401507
19:00+3ссв497598 0.1 1040439
22:00−1ссв31087100 0.0 1040244
24 апреля, сб
сб2401:00−1ссв31087100 0.0 1039259
04:00−1с3987100 0.0 1037296
07:00−1ссв31085100 0.0 1036487
10:00+1с4880100 0.0 1034705
13:00+3ссв5778100 0.2 10331038
16:00+4ссв4670100 0.5 10311138
19:00+3с4886100 0.8 1031548
22:000с269786 0.0 1032165
25 апреля, вс
вс2501:00+1с249274 0.0 1032109
04:00−3сз119616 0.0 103214
07:00−1ссз1192100 0.0 103364
10:00+3ссв1180100 0.0 1033356
13:00+5сз226943 0.2 10321014
16:00+7ссз235730 0.3 10311414
19:00+5всв117785 0.3 103144
22:000ююв218882 0.0 103212
26 апреля, пн
пн2601:00−1юв219411 0.0 103215
04:00−2юв219572 0.0 103118
07:000вюв1289100 0.0 103166
10:00+4юв1273100 0.0 1030389
13:00+7в1261100 0.0 1029960
16:00+8в225893 0.0 10281147
19:00+7всв127070 0.0 102861
22:00+3в11815 0.0 102811